WZZ45A EPKK-LOWW

Flight info

Callsign WZZ45A
Flight time 0h 41m
Altitude 18000
Route BABKO DCT VADEX DCT BABNI DCT TUTPI P182 REKLU REKLU3W
Aircraft A21N/M-SDE2E3FGHIRWXY/LB1

Departure

Time 2026-04-25 17:09
Airport Kraków John Paul II International Airport (EPKK)

Arrival

Time 2026-04-25 17:50
Airport Vienna International Airport (LOWW)
Time Latitude Longitude Altitude Speed Heading
2026-04-25 16:46 50.07711 19.80301 792 ft 0 kts 347°
2026-04-25 17:05 50.07720 19.80298 792 ft 3 kts 347°
2026-04-25 17:05 50.07752 19.80287 792 ft 0 kts 347°
2026-04-25 17:06 50.07758 19.80291 792 ft 3 kts 22°
2026-04-25 17:06 50.07794 19.80342 793 ft 10 kts 26°
2026-04-25 17:06 50.07831 19.80341 793 ft 5 kts 347°
2026-04-25 17:07 50.07842 19.80337 793 ft 0 kts 347°
2026-04-25 17:07 50.07845 19.80337 793 ft 2 kts 347°
2026-04-25 17:07 50.07869 19.80328 793 ft 5 kts 347°
2026-04-25 17:07 50.07918 19.80310 792 ft 9 kts 347°
2026-04-25 17:08 50.07989 19.80274 791 ft 13 kts 327°
2026-04-25 17:08 50.08008 19.80158 792 ft 14 kts 258°
2026-04-25 17:08 50.07924 19.79546 793 ft 110 kts 257°
2026-04-25 17:08 50.07708 19.77907 1092 ft 181 kts 259°
2026-04-25 17:09 50.07436 19.75864 1852 ft 204 kts 261°
2026-04-25 17:09 50.07119 19.73647 3000 ft 219 kts 259°
2026-04-25 17:09 50.06777 19.71248 4178 ft 232 kts 260°
2026-04-25 17:09 50.06380 19.68709 5193 ft 262 kts 255°
2026-04-25 17:10 50.05818 19.66884 5613 ft 293 kts 239°
2026-04-25 17:10 50.03443 19.64067 6054 ft 359 kts 206°
2026-04-25 17:10 50.01075 19.63441 6201 ft 334 kts 181°
2026-04-25 17:10 49.98889 19.64310 6050 ft 317 kts 162°
2026-04-25 17:11 49.96935 19.65603 6023 ft 295 kts 162°
2026-04-25 17:11 49.95035 19.66723 6032 ft 290 kts 166°
2026-04-25 17:11 49.93075 19.67677 6482 ft 302 kts 168°
2026-04-25 17:11 49.90990 19.68543 7603 ft 314 kts 171°
2026-04-25 17:12 49.88878 19.69030 9361 ft 300 kts 184°
2026-04-25 17:12 49.86869 19.68675 10856 ft 294 kts 201°
2026-04-25 17:12 49.84932 19.67463 11748 ft 311 kts 213°
2026-04-25 17:12 49.82990 19.65803 12735 ft 325 kts 215°
2026-04-25 17:13 49.81007 19.64041 13999 ft 331 kts 215°
2026-04-25 17:13 49.80328 19.63442 14409 ft 333 kts 215°
2026-04-25 17:13 49.76913 19.60458 16308 ft 345 kts 214°
2026-04-25 17:13 49.74793 19.58626 17458 ft 351 kts 214°
2026-04-25 17:14 49.72643 19.56771 18531 ft 357 kts 214°
2026-04-25 17:14 49.70458 19.54891 19308 ft 361 kts 215°
2026-04-25 17:14 49.68255 19.53002 19761 ft 364 kts 215°
2026-04-25 17:14 49.66063 19.51127 19900 ft 365 kts 215°
2026-04-25 17:15 49.63832 19.49221 19926 ft 367 kts 215°
2026-04-25 17:15 49.61617 19.47181 19908 ft 374 kts 221°
2026-04-25 17:15 49.59582 19.44604 19919 ft 383 kts 228°
2026-04-25 17:15 49.57676 19.41720 19923 ft 385 kts 231°
2026-04-25 17:16 49.55852 19.38704 19924 ft 385 kts 232°
2026-04-25 17:16 49.54055 19.35639 19924 ft 384 kts 233°
2026-04-25 17:16 49.52264 19.32583 19921 ft 384 kts 233°
2026-04-25 17:16 49.50462 19.29544 19930 ft 384 kts 232°
2026-04-25 17:17 49.48667 19.26550 19928 ft 385 kts 232°
2026-04-25 17:17 49.46832 19.23532 19928 ft 385 kts 232°
2026-04-25 17:17 49.44995 19.20543 19927 ft 385 kts 231°
2026-04-25 17:17 49.43149 19.17554 19938 ft 385 kts 231°
2026-04-25 17:18 49.41299 19.14565 19934 ft 385 kts 231°
2026-04-25 17:18 49.39448 19.11579 20033 ft 386 kts 231°
2026-04-25 17:18 49.37598 19.08593 20050 ft 386 kts 231°
2026-04-25 17:18 49.35777 19.05659 20052 ft 385 kts 231°
2026-04-25 17:19 49.33926 19.02677 20047 ft 386 kts 231°
2026-04-25 17:19 49.32073 18.99700 19869 ft 383 kts 231°
2026-04-25 17:19 49.30262 18.96805 19612 ft 369 kts 231°
2026-04-25 17:19 49.28510 18.94009 19380 ft 359 kts 231°
2026-04-25 17:20 49.26785 18.91243 19138 ft 359 kts 232°
2026-04-25 17:20 49.25165 18.88358 18899 ft 356 kts 237°
2026-04-25 17:20 49.23683 18.85331 18662 ft 355 kts 239°
2026-04-25 17:20 49.22251 18.82255 18427 ft 354 kts 239°
2026-04-25 17:21 49.20848 18.79152 18179 ft 354 kts 240°
2026-04-25 17:21 49.19481 18.76090 17976 ft 353 kts 240°
2026-04-25 17:21 49.18077 18.72939 17941 ft 353 kts 240°
2026-04-25 17:21 49.16698 18.69851 17951 ft 353 kts 240°
2026-04-25 17:22 49.15328 18.66791 17950 ft 352 kts 240°
2026-04-25 17:22 49.14860 18.65750 17947 ft 352 kts 240°
2026-04-25 17:22 49.12542 18.60617 17930 ft 352 kts 240°
2026-04-25 17:22 49.11146 18.57529 17946 ft 352 kts 240°
2026-04-25 17:23 49.09758 18.54461 17945 ft 352 kts 240°
2026-04-25 17:23 49.08366 18.51372 17953 ft 352 kts 241°
2026-04-25 17:23 49.06968 18.48295 17953 ft 352 kts 240°
2026-04-25 17:23 49.05589 18.45273 17946 ft 352 kts 239°
2026-04-25 17:24 49.04189 18.42206 17958 ft 352 kts 240°
2026-04-25 17:24 49.02787 18.39136 17953 ft 352 kts 240°
2026-04-25 17:24 49.01387 18.36064 17953 ft 353 kts 239°
2026-04-25 17:24 48.99985 18.33002 17953 ft 352 kts 239°
2026-04-25 17:25 48.98583 18.29944 17950 ft 352 kts 239°
2026-04-25 17:25 48.97205 18.26870 17949 ft 350 kts 243°
2026-04-25 17:25 48.96068 18.23620 17929 ft 347 kts 248°
2026-04-25 17:25 48.95029 18.20299 17948 ft 348 kts 249°
2026-04-25 17:26 48.94368 18.18064 17956 ft 348 kts 250°
2026-04-25 17:26 48.93097 18.13591 17950 ft 347 kts 250°
2026-04-25 17:26 48.92154 18.10208 17953 ft 347 kts 250°
2026-04-25 17:26 48.91211 18.06826 17949 ft 347 kts 250°
2026-04-25 17:27 48.90583 18.04584 17949 ft 347 kts 250°
2026-04-25 17:27 48.89313 18.00078 17948 ft 347 kts 250°
2026-04-25 17:27 48.88678 17.97841 17947 ft 347 kts 250°
2026-04-25 17:27 48.88042 17.95603 17948 ft 347 kts 250°
2026-04-25 17:28 48.86758 17.91106 17946 ft 347 kts 250°
2026-04-25 17:28 48.85793 17.87736 17941 ft 347 kts 250°
2026-04-25 17:28 48.84827 17.84368 17942 ft 347 kts 250°
2026-04-25 17:28 48.83859 17.80998 17946 ft 347 kts 250°
2026-04-25 17:29 48.82905 17.77681 17946 ft 347 kts 250°
2026-04-25 17:29 48.81934 17.74307 17951 ft 348 kts 250°
2026-04-25 17:29 48.80966 17.70942 17939 ft 348 kts 250°
2026-04-25 17:29 48.79996 17.67581 17944 ft 348 kts 250°
2026-04-25 17:30 48.79025 17.64220 17945 ft 348 kts 250°
2026-04-25 17:30 48.78055 17.60862 17947 ft 348 kts 250°
2026-04-25 17:30 48.77082 17.57504 17948 ft 348 kts 250°
2026-04-25 17:30 48.76105 17.54138 17946 ft 348 kts 249°
2026-04-25 17:31 48.75130 17.50784 17950 ft 348 kts 250°
2026-04-25 17:31 48.74155 17.47432 17947 ft 348 kts 249°
2026-04-25 17:31 48.73178 17.44079 17947 ft 348 kts 249°
2026-04-25 17:31 48.72264 17.40693 17943 ft 345 kts 256°
2026-04-25 17:32 48.71807 17.37178 17880 ft 347 kts 266°
2026-04-25 17:32 48.71645 17.33582 17762 ft 336 kts 270°
2026-04-25 17:32 48.71629 17.30115 17561 ft 322 kts 272°
2026-04-25 17:32 48.71618 17.26786 17329 ft 312 kts 267°
2026-04-25 17:33 48.71207 17.23592 16921 ft 309 kts 254°
2026-04-25 17:33 48.70358 17.20607 16433 ft 309 kts 247°
2026-04-25 17:33 48.69330 17.17755 16019 ft 307 kts 245°
2026-04-25 17:33 48.68281 17.14934 15757 ft 307 kts 245°
2026-04-25 17:34 48.67242 17.12134 15358 ft 304 kts 244°
2026-04-25 17:34 48.66209 17.09347 15104 ft 304 kts 245°
2026-04-25 17:34 48.65173 17.06555 14850 ft 305 kts 244°
2026-04-25 17:34 48.64135 17.03759 14616 ft 304 kts 244°
2026-04-25 17:35 48.63099 17.00975 14378 ft 303 kts 244°
2026-04-25 17:35 48.62067 16.98209 14137 ft 302 kts 244°
2026-04-25 17:35 48.61047 16.95477 13902 ft 301 kts 244°
2026-04-25 17:35 48.60016 16.92718 13656 ft 300 kts 244°
2026-04-25 17:36 48.58990 16.89975 13389 ft 299 kts 244°
2026-04-25 17:36 48.57966 16.87241 13125 ft 298 kts 244°
2026-04-25 17:36 48.56955 16.84549 12866 ft 289 kts 244°
2026-04-25 17:36 48.55977 16.81950 12611 ft 282 kts 244°
2026-04-25 17:37 48.55019 16.79402 12359 ft 282 kts 244°
2026-04-25 17:37 48.54039 16.76827 12103 ft 284 kts 241°
2026-04-25 17:37 48.52705 16.74591 11848 ft 289 kts 223°
2026-04-25 17:37 48.50962 16.73035 11583 ft 296 kts 206°
2026-04-25 17:38 48.48962 16.72204 11336 ft 301 kts 193°
2026-04-25 17:38 48.47575 16.71988 11176 ft 304 kts 187°
2026-04-25 17:38 48.44731 16.72071 10848 ft 306 kts 180°
2026-04-25 17:38 48.42614 16.72361 10602 ft 306 kts 178°
2026-04-25 17:39 48.40501 16.72704 10384 ft 305 kts 178°
2026-04-25 17:39 48.38401 16.73038 10094 ft 302 kts 178°
2026-04-25 17:39 48.36313 16.73340 9575 ft 298 kts 179°
2026-04-25 17:39 48.34274 16.73605 9049 ft 290 kts 179°
2026-04-25 17:40 48.32307 16.73838 8563 ft 284 kts 180°
2026-04-25 17:40 48.30341 16.74053 8184 ft 282 kts 180°
2026-04-25 17:40 48.28390 16.74257 7799 ft 279 kts 179°
2026-04-25 17:40 48.26462 16.74456 7446 ft 275 kts 179°
2026-04-25 17:41 48.24562 16.74653 7236 ft 271 kts 179°
2026-04-25 17:41 48.22706 16.74847 7019 ft 265 kts 179°
2026-04-25 17:41 48.20867 16.75040 6778 ft 265 kts 179°
2026-04-25 17:41 48.19049 16.75231 6540 ft 265 kts 178°
2026-04-25 17:42 48.17212 16.75424 6295 ft 264 kts 178°
2026-04-25 17:42 48.15377 16.75618 6035 ft 264 kts 178°
2026-04-25 17:42 48.13571 16.75811 5786 ft 255 kts 178°
2026-04-25 17:42 48.11836 16.75998 5530 ft 244 kts 178°
2026-04-25 17:43 48.10188 16.76177 5379 ft 231 kts 178°
2026-04-25 17:43 48.08596 16.76347 5263 ft 229 kts 178°
2026-04-25 17:43 48.07008 16.76513 5105 ft 229 kts 179°
2026-04-25 17:43 48.05427 16.76679 4913 ft 226 kts 178°
2026-04-25 17:44 48.03874 16.76841 4770 ft 227 kts 179°
2026-04-25 17:44 48.02340 16.77003 4636 ft 214 kts 179°
2026-04-25 17:44 48.00839 16.77162 4274 ft 221 kts 179°
2026-04-25 17:44 47.99283 16.77322 3931 ft 224 kts 179°
2026-04-25 17:45 47.97749 16.77154 3609 ft 217 kts 204°
2026-04-25 17:45 47.96900 16.76401 3435 ft 213 kts 226°
2026-04-25 17:45 47.95928 16.73943 3063 ft 203 kts 253°
2026-04-25 17:45 47.95465 16.71986 2976 ft 203 kts 254°
2026-04-25 17:46 47.95032 16.70059 2973 ft 189 kts 255°
2026-04-25 17:46 47.94648 16.68215 2971 ft 184 kts 264°
2026-04-25 17:46 47.94867 16.66405 2978 ft 178 kts 300°
2026-04-25 17:46 47.95656 16.64979 2977 ft 179 kts 313°
2026-04-25 17:47 47.96547 16.63729 2969 ft 173 kts 315°
2026-04-25 17:47 47.97467 16.62657 2954 ft 168 kts 334°
2026-04-25 17:47 47.98634 16.62496 3058 ft 170 kts 354°
2026-04-25 17:47 47.99815 16.62368 2994 ft 170 kts 349°
2026-04-25 17:48 48.02169 16.61896 2670 ft 171 kts 346°
2026-04-25 17:48 48.03330 16.61594 2311 ft 167 kts 341°
2026-04-25 17:48 48.04445 16.61177 2064 ft 165 kts 340°
2026-04-25 17:49 48.05537 16.60722 1753 ft 165 kts 338°
2026-04-25 17:49 48.06638 16.60210 1247 ft 166 kts 335°
2026-04-25 17:49 48.07743 16.59655 933 ft 168 kts 338°
2026-04-25 17:49 48.08857 16.59159 685 ft 167 kts 339°
2026-04-25 17:50 48.09865 16.58709 631 ft 112 kts 343°
2026-04-25 17:50 48.10360 16.58502 621 ft 47 kts 345°
2026-04-25 17:50 48.10613 16.58389 619 ft 28 kts 336°
2026-04-25 17:50 48.10755 16.58236 618 ft 17 kts 319°
2026-04-25 17:51 48.10835 16.58123 616 ft 7 kts 314°
2026-04-25 17:51 48.10836 16.58121 616 ft 0 kts 314°
2026-04-25 17:52 48.10854 16.58093 615 ft 5 kts 314°
2026-04-25 17:52 48.10883 16.58049 627 ft 7 kts 314°
2026-04-25 17:53 48.10917 16.57996 616 ft 6 kts 314°
2026-04-25 17:53 48.10941 16.57959 621 ft 4 kts 314°
2026-04-25 17:53 48.10956 16.57936 615 ft 3 kts 314°
2026-04-25 17:53 48.10976 16.57906 628 ft 5 kts 314°
2026-04-25 17:54 48.11003 16.57864 623 ft 7 kts 314°
2026-04-25 17:54 48.11045 16.57806 616 ft 9 kts 325°
2026-04-25 17:54 48.11114 16.57759 623 ft 12 kts 336°
2026-04-25 17:54 48.11173 16.57668 625 ft 13 kts 300°
2026-04-25 17:55 48.11217 16.57535 621 ft 15 kts 296°
2026-04-25 17:55 48.11263 16.57392 628 ft 15 kts 295°
2026-04-25 17:55 48.11311 16.57242 621 ft 17 kts 296°
2026-04-25 17:55 48.11355 16.57111 626 ft 8 kts 297°
2026-04-25 17:56 48.11357 16.57104 631 ft 1 kts 297°
2026-04-25 17:56 48.11364 16.57084 624 ft 4 kts 297°
2026-04-25 17:56 48.11380 16.57034 630 ft 9 kts 295°
2026-04-25 17:56 48.11420 16.56906 620 ft 18 kts 296°
2026-04-25 17:57 48.11476 16.56735 628 ft 18 kts 296°
2026-04-25 17:57 48.11537 16.56552 628 ft 21 kts 296°
2026-04-25 17:57 48.11596 16.56370 622 ft 18 kts 295°
2026-04-25 17:57 48.11614 16.56314 617 ft 17 kts 295°
2026-04-25 17:58 48.11646 16.56215 622 ft 5 kts 296°
2026-04-25 17:58 48.11670 16.56142 621 ft 10 kts 296°
2026-04-25 17:58 48.11707 16.56030 625 ft 14 kts 296°
2026-04-25 17:58 48.11755 16.55881 626 ft 15 kts 295°
2026-04-25 17:59 48.11800 16.55739 619 ft 15 kts 295°
2026-04-25 17:59 48.11852 16.55577 621 ft 20 kts 297°
2026-04-25 17:59 48.11907 16.55373 619 ft 21 kts 294°
2026-04-25 17:59 48.11965 16.55203 620 ft 15 kts 305°
2026-04-25 18:00 48.12028 16.55194 618 ft 11 kts 23°
2026-04-25 18:00 48.12112 16.55272 602 ft 17 kts 36°
2026-04-25 18:00 48.12162 16.55238 600 ft 7 kts 300°
2026-04-25 18:00 48.12170 16.55216 601 ft 0 kts 297°